PLEIADES NEO 4 (49070 NORAD) Tracking and Keplerian Element Data

This shows tracking and keplerian element data for the satellite.

Feedback or suggestion? Click here.




ElementValue
Catalog49070
NamePLEIADES NEO 4
Epoch Orbit488
Epoch Day262.07911019
Epoch Year2021
RAAN335.6983
Inclination97.8945
Eccentricity0.0001409
Argument of Perigee89.67
Mean Anonmoly270.4662
Mean Motion14.81670192
Decay Rate-3.19E-06
L11 49070U 21073E 21262.07911019 -.00000319 00000-0 -33981-4 0 9997
L22 49070 97.8945 335.6983 0001409 89.6700 270.4662 14.81670192 4881

Live tracking and technical data element details for PLEIADES NEO 4 (NORAD 49070). PLEIADES NEO 4 can be tracked NOW for your location showing map with azimuth and elevation plus other details from your city location.

Track the satellite on the map from your city or location and see movement details for azimuth, elevation, latitude, longitude, range, height, and movement on the map or in text.







IsCatalogInMostPopularTable: catalog: 49070, numindb: 4
Update: records affected: 1



GetName: 49070 PLEIADES NEO 4

Hit Count: updated at: Fri, 24 Sep 2021 17:19:47 GMT